Location: Unspecified
(0.0000°N, 0.0000°E)
Time: 05:36:53
(UTC+00:00)

RS-15 - Pass Details

Date: 09 December 2017
Orbit: 1886 x 2158 km, 64.8° (Epoch: 18 January)

Event Time Altitude Azimuth Distance (km) Brightness Sun altitude
Exits shadow 02:49:36 66° 197° (SSW) 2,037 7.9 -41.2°
Drops below altitude 10° 02:58:50 10° 165° (SSE) 4,266 10.2 -39.3°
Sets 03:02:04 0° 163° (SSE) 5,265 10.8 -38.6°
